Regional Weather Roundup
Issued by NWS

Home | Current Version | Previous Version | Text Only | Print | Product List | Glossary On
Versions: 1 2 3 4 5 6 7 8 9 10 11 12 13 14 15 16 17 18 19 20 21 22 23 24 25 26 27 28 29 30 31 32 33 34 35 36 37 38 39 40 41 42 43 44 45 46 47 48 49 50
000
ASUS44 KLIX 200805
RWRLA
LOUISIANA WEATHER ROUNDUP
NATIONAL WEATHER SERVICE NEW ORLEANS LA
300 AM CDT WED AUG 20 2014

NOTE: "FAIR" INDICATES FEW OR NO CLOUDS BELOW 12,000 FEET WITH NO
      SIGNIFICANT WEATHER AND/OR OBSTRUCTIONS TO VISIBILITY.
      SKY/WX - SKY CONDITION AND SIGNIFICANT WEATHER.
      TMP - AIR TEMPERATURE.    DP   - DEWPOINT TEMPERATURE.
      RH  - RELATIVE HUMIDITY.  PRES - PRESSURE.
      HX  - HEAT INDEX.         WCI  - WIND CHILL INDEX.

*  THESE STATIONS ARE NOT NWS OR FAA STATIONS AND ARE NOT UNDER
   NWS QUALITY CONTROL.

LAZ040-048-061>063-065-066-069-200900-
SOUTHEAST LOUISIANA

CITY           SKY/WX    TMP DP  RH WIND       PRES   REMARKS
N.O. AUDUBON   NOT AVBL
N.O. INTL ARPT PTCLDY    79  75  87 CALM      29.98R
N.O. LAKEFRONT PTCLDY    82  76  81 SW7       29.98S
N.O. DOWNTOWN* FAIR      82  72  69 CALM      29.98S
SLIDELL        CLEAR     77  73  87 CALM      29.97S
BATON ROUGE    PTCLDY    73  70  90 CALM      29.97S
BOOTHVILLE     CLEAR     84  77  79 S7        29.98F
BELLE CHASSE   CLEAR     76  72  87 CALM      29.97S
BOGALUSA*      FAIR      76  72  88 CALM      29.99S
GALLIANO*      NOT AVBL
NEW ROADS*     FAIR      72  71  98 CALM      29.97S
GONZALES*      FAIR      75  75  99 CALM      29.96S
HAMMOND*       PTCLDY    75  72  88 CALM      29.99S
HOUMA*         PTCLDY    74  71  89 CALM      29.97F
PORT FOURCHON* MOSUNNY   86  75  70 S7        29.99S HX  95

$$

LAZ041-044-053-054-200900-
SOUTHWEST LOUISIANA

CITY           SKY/WX    TMP DP  RH WIND       PRES   REMARKS
LAKE CHARLES   PTCLDY    74  73  97 SE3       29.95F
LAFAYETTE      PTCLDY    75  73  93 S3        29.96F
PATTERSON      PTCLDY   N/A N/A N/A MISG        N/A
SALT POINT       N/A     82  77  84 CALM      29.96F
NEW IBERIA     PTCLDY    73  71  93 S3        29.97F
CHENAULT AIRPK PTCLDY    73  73 100 CALM      29.97S

$$

LAZ027-028-200900-
CENTRAL LOUISIANA

CITY           SKY/WX    TMP DP  RH WIND       PRES   REMARKS
FORT POLK      CLOUDY    73  71  93 S6        29.96S
ALEXANDRIA INT MOCLDY    73  71  93 CALM      29.94S
ALEXANDRIA     MOCLDY    75  72  90 CALM      29.96S

$$

LAZ001-002-200900-
NORTHWEST LOUISIANA

CITY           SKY/WX    TMP DP  RH WIND       PRES   REMARKS
SHREVEPORT     MOCLDY    75  68  78 CALM      29.94R
BARKSDALE AFB  MOCLDY    72  69  90 SE5       29.94S
DTN SHREVEPORT MOCLDY    75  68  78 CALM      29.94S

$$

LAZ014-016-200900-
NORTHEAST LOUISIANA

CITY           SKY/WX    TMP DP  RH WIND       PRES   REMARKS
MONROE         MOCLDY    74  70  87 SW3       29.95F
TALLULAH       CLEAR     71  69  93 CALM      29.96R

$$



USA.gov is the U.S. government's official web portal to all federal, state and local government web resources and services.